Starlink 37326

operational
NORAD ID: 68543 Int'l Des: 2026-070 Owner: SPXS Country: US Constellation: starlink
LEOCIRCULAR

About Starlink 37326

Description loading...

Live Position

Loading 3D Globe...

Upcoming Passes

Altitude History

Altitude vs Time

uPlot chart will show altitude changes over time

Two-Line Element Set

1 68543C 26070A 26093.74423611 .01099200 00000+0 13680-2 0 934
2 68543 53.1618 260.4086 0009362 282.5296 109.2994 16.06361380 11
Epoch: Apr 3, 2026 • Age: 29 hours

Current Status

Altitude 266.0 km
Velocity 7.75 km/s
Sub-Earth Point 49.97°N, 113.74°E
Launch Date Apr 2, 2026
Age 1 days
Type internet

Technical Details

Classification Payload
Mass 575.00 kg
Dry Mass 530.00 kg
Total Mass 575.00 kg
Length 0.30 m
Diameter 4.10 m
Span 29.00 m
Shape Box + pan
Manufacturer SPXS
Bus Type Starlink V2MO
Phase Status In Orbit
Owner/State SPXS/US

Large Constellations

Loading constellations...